Flag for Germany Weather past 2 weeks in Demmin, Mecklenburg-Western Pomerania, Germany

Now
44 °F

Passing clouds.


Feels Like: 44 °F
Forecast: 36 / 57 °F
Wind: 2 mph from Southwest

Location: Greifswald

Current Time: Apr 28, 2015 at 10:48:07 PM

Latest Report: Apr 28, 2015 at 10:00 PM


Visibility: 28 mi

Pressure: 30.00 "Hg

Humidity: 64%

Dew point: 32 °F

Location of DemminLocation

Historic Weather in Demmin — Graph

°F

Demmin temperature yesterday

Maximum temperature yesterday: 49 °F (at 4:00 PM)
Minimum temperature yesterday: 45 °F (at 8:00 AM)
Average temperature yesterday: 47 °F

Past Weeks' High & Low Weather Summary

 TemperatureHumidityPressure
High69 °F (Apr 15, 4:00 PM)100% (Apr 25, 3:00 AM)30.32 "Hg (Apr 25, 3:00 AM)
Low35 °F (Apr 18, 6:00 AM)38% (Apr 15, 4:00 PM)29.67 "Hg (Apr 27, 6:00 AM)
Average49 °F73%30.02 "Hg
* Reported Apr 13 10:00 PM — Apr 28 10:00 PM, Demmin, Weather by CustomWeather, © 2015

Note: Actual official high and low records may vary slightly from our data, if they occured in-between our weather recording intervals... More about our weather records

Advertising

Demmin weather history for previous 24 hours

 ConditionsComfort  
Time TempWeatherWind HumidityBarometerVisibility
10:00 PM
Tue, Apr 28
44 °FPassing clouds.2 mph64%30.00 "Hg28 mi
9:00 PM46 °FPassing clouds.2 mph55%29.99 "Hg34 mi
8:00 PM48 °FPartly sunny.2 mph57%29.97 "Hg28 mi
7:00 PM47 °FOvercast.5 mph61%29.96 "Hg34 mi
6:00 PM49 °FOvercast.6 mph57%29.95 "Hg25 mi
4:00 PM47 °FOvercast.5 mph61%29.94 "Hg34 mi
3:00 PM47 °FOvercast.5 mph65%29.93 "Hg31 mi
2:00 PM47 °FOvercast.6 mph67%29.91 "Hg34 mi
1:00 PM47 °FOvercast.5 mph65%29.90 "Hg31 mi
12:00 PM48 °FOvercast.5 mph62%29.88 "Hg31 mi
10:00 AM48 °FOvercast.3 mph67%29.85 "Hg25 mi
9:00 AM46 °FOvercast.5 mph73%29.84 "Hg22 mi
8:00 AM44 °FPartly sunny.3 mph78%29.83 "Hg22 mi
7:00 AM44 °FPartly sunny.3 mph84%29.82 "Hg19 mi
6:00 AM45 °FOvercast.5 mph82%29.79 "Hg19 mi
4:00 AM46 °FOvercast.3 mph75%29.78 "Hg28 mi
3:00 AM46 °FOvercast.5 mph73%29.77 "Hg31 mi
2:00 AM46 °FOvercast.3 mph80%29.77 "Hg22 mi
1:00 AM45 °FOvercast.2 mph81%29.77 "Hg19 mi
12:00 AM46 °FOvercast.2 mph83%29.77 "Hg12 mi
10:00 PM
Mon, Apr 27
46 °FOvercast.2 mph83%29.76 "Hg12 mi
Weather by CustomWeather, © 2015

See weather overviewHow to use our weather pages